Weather History for Lorain / Elyria, OH

Change the Weather History Date:

Saturday, December 8, 2012

  Actual Average (KCLE) Record (KCLE)
Temperature  
Mean Temperature 42 °F 35 °F  
Max Temperature 46 °F 41 °F 67 °F (1966)
Min Temperature 39 °F 29 °F -9 °F (1882)
Degree Days  
Heating Degree Days 22 30  
Month to date heating degree days 231  
Since 1 July heating degree days 1326  
Cooling Degree Days 0 0  
Month to date cooling degree days 0  
Year to date cooling degree days 817  
Moisture  
Dew Point 42 °F    
Average Humidity 91    
Maximum Humidity 100    
Minimum Humidity 79    
Precipitation  
Precipitation 0.10 in 0.10 in 0.68 in (1978)
Month to date precipitation 0.83  
Year to date precipitation 36.87  
Snow  
Snow 0.00 in 0.40 in - ()
Month to date snowfall 2.8  
Since 1 July snowfall 7.3  
Snow Depth -    
Sea Level Pressure  
Sea Level Pressure 29.91 in    
Wind  
Wind Speed 5 mph (North)    
Max Wind Speed 13 mph    
Max Gust Speed -    
Visibility 3 miles    
Events Fog , Rain    
T = Trace of Precipitation, MM = Missing Value Source: NWS Daily Summary

Daily Weather History Graph

Daily Weather History Graph

Search for Another Location

Airport:

Trip Planner

Search our weather history database for the weather conditions in past years. The results will help you decide how hot, cold, wet, or windy it might be!

Date:

Astronomy

Dec. 08, 2012 Rise Set
Actual Time 7:42 AM EST 4:59 PM EST
Civil Twilight 7:11 AM EST 5:30 PM EST
Nautical Twilight 6:36 AM EST 6:04 PM EST
Astronomical Twilight 6:03 AM EST 6:38 PM EST
Moon 2:02 AM EST (12/8) 1:31 PM EST (12/8)
Length of Visible Light 10h 19m
Length of Day
9h 16m
Waning Crescent, 28% of the Moon is Illuminated
Dec 8
Waning Crescent
Dec 13
New
Dec 20
First Quarter
Dec 28
Full
Jan 4
Last Quarter

Hourly Weather History & Observations

Time (EST) Temp. Windchill Dew Point Humidity Pressure Visibility Wind Dir Wind Speed Gust Speed Precip Events Conditions
12:02 AM 44.6 °F 42.2 °F 42.8 °F 93% 29.86 in 1.0 mi ESE 4.6 mph - 0.00 in Rain Light Rain
12:26 AM 44.6 °F - 42.8 °F 93% 29.85 in 1.8 mi Calm Calm - 0.00 in Rain Light Rain
12:48 AM 44.6 °F 43.1 °F 44.6 °F 100% 29.85 in 1.5 mi ENE 3.5 mph - 0.00 in   Overcast
12:53 AM 46.0 °F 44.8 °F 44.1 °F 93% 29.85 in 1.8 mi ENE 3.5 mph - 0.00 in   Overcast
1:19 AM 46.4 °F 44.3 °F 44.6 °F 93% 29.84 in 2.0 mi East 4.6 mph - 0.00 in Rain Light Rain
1:29 AM 46.4 °F 45.2 °F 44.6 °F 93% 29.83 in 1.8 mi East 3.5 mph - 0.00 in Rain Light Rain
1:53 AM 45.0 °F 42.6 °F 44.1 °F 97% 29.83 in 1.5 mi ENE 4.6 mph - 0.01 in Rain Light Rain
2:08 AM 46.4 °F 44.3 °F 44.6 °F 93% 29.82 in 1.5 mi NE 4.6 mph - 0.00 in   Overcast
2:50 AM 46.4 °F 44.3 °F 44.6 °F 93% 29.81 in 1.8 mi ENE 4.6 mph - 0.01 in   Overcast
2:53 AM 46.0 °F 43.9 °F 44.1 °F 93% 29.82 in 1.8 mi ENE 4.6 mph - 0.01 in   Overcast
3:53 AM 46.0 °F - 44.1 °F 93% 29.81 in 1.0 mi Calm Calm - 0.05 in Rain Light Rain
4:04 AM 46.4 °F - 44.6 °F 93% 29.79 in 1.0 mi Calm Calm - 0.00 in Rain Light Rain
4:42 AM 46.4 °F - 44.6 °F 93% 29.79 in 1.2 mi Calm Calm - 0.01 in   Overcast
4:53 AM 46.0 °F - 45.0 °F 96% 29.80 in 1.0 mi Calm Calm - 0.01 in   Overcast
5:05 AM 46.4 °F - 44.6 °F 93% 29.79 in 0.8 mi Calm Calm - N/A   Overcast
5:32 AM 46.4 °F - 44.6 °F 93% 29.79 in 0.8 mi Calm Calm - N/A   Overcast
6:53 AM 46.0 °F - 44.1 °F 93% 29.81 in 0.5 mi Calm Calm - N/A Fog Fog
7:39 AM 46.4 °F 44.3 °F 44.6 °F 93% 29.80 in 1.0 mi WSW 4.6 mph - 0.01 in   Overcast
7:53 AM 46.0 °F 42.5 °F 45.0 °F 96% 29.83 in 1.0 mi West 6.9 mph - 0.01 in   Overcast
8:53 AM 46.9 °F - 45.0 °F 93% 29.85 in 1.2 mi West 8.1 mph - N/A   Overcast
9:53 AM 46.9 °F - 45.0 °F 93% 29.86 in 1.2 mi West 8.1 mph - 0.01 in   Overcast
10:53 AM 46.9 °F - 45.0 °F 93% 29.87 in 1.8 mi West 8.1 mph - N/A   Overcast
11:01 AM 46.4 °F 41.5 °F 44.6 °F 93% 29.87 in 2.5 mi West 10.4 mph - N/A   Overcast
11:10 AM 46.4 °F 42.4 °F 44.6 °F 93% 29.87 in 3.0 mi West 8.1 mph - N/A   Overcast
11:51 AM 46.4 °F 41.1 °F 44.6 °F 93% 29.86 in 5.0 mi West 11.5 mph - N/A   Overcast
11:53 AM 46.9 °F - 45.0 °F 93% 29.87 in 6.0 mi West 10.4 mph - N/A   Overcast
12:33 PM 46.4 °F 41.5 °F 44.6 °F 93% 29.86 in 2.0 mi NW 10.4 mph - N/A   Overcast
12:40 PM 46.4 °F 41.1 °F 44.6 °F 93% 29.86 in 1.2 mi NW 11.5 mph - N/A   Overcast
12:53 PM 46.0 °F 41.4 °F 44.1 °F 93% 29.88 in 2.0 mi NW 9.2 mph - N/A   Overcast
1:07 PM 44.6 °F 39.7 °F 42.8 °F 93% 29.87 in 1.5 mi NW 9.2 mph - N/A   Overcast
1:18 PM 46.4 °F 41.5 °F 42.8 °F 87% 29.87 in 3.0 mi WNW 10.4 mph - N/A   Overcast
1:44 PM 44.6 °F 38.4 °F 42.8 °F 93% 29.88 in 1.8 mi NW 12.7 mph - N/A   Overcast
1:53 PM 44.1 °F 38.1 °F 42.1 °F 93% 29.89 in 1.0 mi NNW 11.5 mph - N/A   Overcast
2:00 PM 44.6 °F 38.8 °F 42.8 °F 93% 29.88 in 0.5 mi NNW 11.5 mph - N/A Fog Fog
2:53 PM 42.1 °F 37.1 °F 39.9 °F 92% 29.92 in 0.8 mi NNW 8.1 mph - N/A   Overcast
3:01 PM 42.8 °F 36.2 °F 39.2 °F 87% 29.92 in 1.0 mi North 12.7 mph - N/A   Overcast
3:30 PM 42.8 °F 37.0 °F 39.2 °F 87% 29.95 in 2.0 mi North 10.4 mph - N/A   Overcast
3:41 PM 41.0 °F 34.7 °F 39.2 °F 93% 29.96 in 4.0 mi North 10.4 mph - N/A   Overcast
3:53 PM 41.0 °F 34.3 °F 39.0 °F 93% 29.98 in 4.0 mi North 11.5 mph - N/A   Overcast
4:34 PM 41.0 °F 34.7 °F 37.4 °F 87% 29.99 in 7.0 mi North 10.4 mph - N/A   Overcast
4:53 PM 41.0 °F 35.8 °F 37.9 °F 89% 30.01 in 10.0 mi North 8.1 mph - N/A   Overcast
5:53 PM 39.9 °F 34.5 °F 37.9 °F 93% 30.04 in 3.0 mi NNE 8.1 mph - N/A   Overcast
6:34 PM 39.2 °F 33.6 °F 37.4 °F 93% 30.04 in 4.0 mi NE 8.1 mph - N/A   Overcast
6:53 PM 39.9 °F 35.1 °F 37.9 °F 93% 30.07 in 9.0 mi NNE 6.9 mph - N/A   Overcast
7:19 PM 41.0 °F 38.0 °F 37.4 °F 87% 30.06 in 10.0 mi NNE 4.6 mph - N/A   Overcast
7:53 PM 41.0 °F 38.0 °F 37.0 °F 86% 30.09 in 10.0 mi NNE 4.6 mph - N/A   Overcast
8:53 PM 41.0 °F 36.4 °F 37.0 °F 86% 30.11 in 10.0 mi NE 6.9 mph - N/A   Overcast
9:29 PM 41.0 °F 35.2 °F 35.6 °F 81% 30.10 in 10.0 mi ENE 9.2 mph - N/A   Overcast
9:53 PM 41.0 °F 35.2 °F 35.1 °F 79% 30.12 in 10.0 mi NE 9.2 mph - N/A   Overcast
10:53 PM 39.9 °F 35.1 °F 35.1 °F 83% 30.13 in 10.0 mi ENE 6.9 mph - N/A   Overcast
11:53 PM 39.9 °F 34.5 °F 34.0 °F 79% 30.15 in 10.0 mi NE 8.1 mph - N/A   Overcast